GEFSMA_500_meanwind_024.txt.gz
Wind_Speed
13 13 12 13 13 14 15 15 16 17 18 20 21 22 24 26 27 28 29 30 30 30 31 32 33 34 35 36 37 39 39 40 41 42 43 44 44 44 45 45 45 45 45
17 17 17 17 17 18 19 21 21 22 23 24 25 27 29 31 33 34 36 37 37 38 38 39 40 41 42 43 44 45 46 47 48 49 49 49 49 49 49 49 48 48 48
20 21 23 23 24 25 26 27 28 29 30 30 31 32 33 35 38 41 42 44 44 45 46 47 48 49 50 51 52 53 54 55 55 55 55 55 55 54 54 53 52 52 51
24 26 28 29 30 32 32 33 35 36 37 37 38 38 39 40 42 45 47 48 49 50 52 53 54 56 57 58 59 60 60 61 61 60 60 60 59 59 58 57 56 55 54
29 30 32 34 35 37 38 39 39 40 42 42 43 44 45 46 47 48 49 50 51 52 52 53 55 56 58 59 61 62 63 63 63 63 63 62 61 61 60 59 58 57 56
33 34 36 38 39 40 41 42 43 44 44 45 46 46 47 48 49 49 50 51 52 53 55 56 57 58 59 60 62 63 64 64 64 63 62 62 61 61 60 59 59 58 57
37 39 40 41 42 43 43 44 44 45 46 46 46 47 47 48 48 49 50 52 53 55 57 59 61 62 63 65 65 66 65 64 63 62 61 61 61 60 59 59 58 57 57
41 43 44 44 44 44 44 43 44 45 45 46 47 47 47 49 51 52 53 55 57 59 62 63 64 65 66 66 66 65 64 63 62 62 61 61 60 59 59 58 57 56 55
43 44 44 44 44 45 44 43 43 44 46 47 48 49 49 51 52 55 58 60 61 63 64 65 65 66 65 65 64 64 64 64 64 63 62 60 58 58 57 57 56 55 54
44 45 46 45 46 46 45 45 45 46 48 50 51 52 53 54 55 57 60 62 63 63 64 65 65 65 66 66 66 67 68 68 67 65 63 60 58 57 57 56 56 55 53
45 46 46 47 47 47 48 48 49 50 51 53 55 57 59 60 60 60 60 61 62 63 63 64 65 66 67 68 69 70 70 69 68 65 62 60 59 58 57 56 55 54 53
45 46 47 48 49 49 50 51 52 53 55 57 59 61 62 62 63 62 61 61 62 64 65 67 68 69 70 71 72 71 70 68 67 64 62 60 58 58 57 56 55 53 53
47 48 49 49 50 50 51 53 55 57 59 60 62 62 63 63 63 64 64 65 65 65 67 68 71 72 73 73 73 72 70 69 67 65 63 61 59 58 58 57 55 54 53
49 50 50 51 51 52 54 57 58 60 61 62 63 63 63 64 65 67 67 67 66 66 67 68 71 73 74 74 73 73 72 71 69 68 66 64 62 60 59 58 57 56 54
52 53 54 54 55 57 59 60 62 63 64 63 63 64 66 66 67 67 68 68 68 67 67 69 71 73 74 74 73 73 72 71 70 68 66 64 63 61 60 60 59 58 57
55 56 57 58 59 61 62 63 64 65 64 64 64 65 66 67 68 68 68 69 70 71 70 70 73 74 74 73 70 68 65 63 62 60 59 58 58 59 59 59 60 60 60
57 58 60 62 63 63 64 65 64 63 63 64 65 65 66 66 65 65 67 68 71 73 73 72 73 71 68 63 58 55 52 50 48 47 47 47 49 51 53 55 57 59 61
60 62 64 65 64 63 64 66 64 63 63 62 62 63 61 61 62 64 67 69 71 73 73 69 63 58 53 50 47 43 40 38 37 37 38 39 40 42 45 48 51 54 58
64 65 65 64 63 63 63 62 62 61 60 59 58 57 58 60 62 65 67 69 69 68 64 59 52 48 44 42 38 35 32 32 31 32 33 34 35 36 38 41 44 48 52
65 64 62 61 61 61 62 62 60 58 56 55 55 57 59 61 63 65 65 64 61 57 53 48 42 38 36 34 31 29 28 29 29 30 30 30 30 31 32 34 36 40 44
61 60 60 60 60 60 59 57 55 54 53 54 56 58 59 61 62 62 59 54 50 45 41 37 32 29 27 26 25 24 24 24 24 25 25 25 26 26 28 29 31 34 38
59 59 58 58 57 55 53 52 52 52 53 54 55 57 58 58 56 52 47 44 40 35 31 27 23 21 19 19 19 19 18 18 19 21 20 19 19 19 22 25 27 30 33
56 55 54 54 51 50 49 50 51 52 53 54 54 54 52 49 45 40 37 33 30 26 22 18 15 14 14 14 14 14 15 15 15 16 15 15 15 14 15 17 20 24 26
52 51 50 49 48 48 48 49 50 51 51 51 49 46 42 38 35 30 26 23 20 17 14 11 10 10 11 11 12 12 12 12 12 13 12 12 12 11 11 12 14 16 19
49 47 47 46 47 47 47 47 47 47 46 44 40 37 33 30 26 21 17 14 12 11 9 9 9 9 10 10 11 12 12 12 12 13 12 12 12 11 11 11 12 13 15
44 44 45 45 45 45 44 42 41 40 38 35 32 30 27 23 18 14 11 10 9 8 8 8 9 9 11 12 13 14 14 14 14 13 13 12 11 11 11 11 12 12 14

GEFSMA_500_meanwind_030.txt.gz
Wind_Speed
10 9 9 10 11 12 13 15 17 18 20 21 23 24 25 26 27 27 28 29 30 32 33 34 35 35 36 37 38 39 39 39 39 40 40 40 41 41 41 41 41 40 40
13 12 13 14 14 15 17 18 20 22 23 25 26 28 29 30 31 31 32 33 34 35 37 37 38 39 39 40 41 42 43 43 44 45 45 46 46 47 47 47 47 47 47
17 17 17 18 18 19 20 22 24 25 27 29 30 31 32 33 34 34 35 36 36 37 38 39 40 40 41 42 42 43 44 44 45 46 47 47 48 50 51 51 52 52 52
22 22 22 23 23 23 24 25 26 28 30 31 33 34 34 35 36 37 38 39 40 40 41 42 42 42 43 43 44 45 46 47 47 48 48 49 49 50 51 51 52 52 52
28 27 27 27 28 28 28 29 30 31 33 34 35 36 37 37 38 39 40 41 42 43 44 45 46 46 46 47 48 49 50 50 51 51 52 52 52 52 52 52 52 53 52
32 31 31 31 32 32 32 32 32 33 34 35 37 38 39 40 40 41 42 43 44 45 46 48 49 50 51 52 53 54 54 55 55 56 56 56 56 55 55 55 54 54 53
34 34 34 35 34 34 33 34 33 34 35 36 38 39 40 41 42 43 44 45 47 48 50 51 52 54 55 56 57 57 58 58 58 58 58 58 58 58 57 57 57 56 55
34 35 34 34 34 33 33 32 33 35 38 39 40 41 42 43 44 46 47 49 50 52 53 55 56 57 58 59 60 60 60 60 60 60 60 60 60 60 59 59 59 59 58
32 31 30 32 32 32 34 36 37 39 41 42 43 44 45 46 47 48 50 51 54 56 57 59 60 62 62 63 63 63 63 63 63 63 63 63 63 63 63 63 62 62 61
28 28 29 31 32 35 38 39 41 43 45 46 47 47 48 49 51 52 53 56 58 60 61 63 64 65 66 66 66 66 66 67 67 67 67 67 68 68 67 67 67 66 65
29 29 30 33 36 39 42 44 45 47 48 50 51 52 54 55 56 57 58 60 61 63 65 66 67 68 68 68 69 69 70 70 71 72 72 72 72 72 71 71 69 68 67
31 33 35 38 40 43 45 48 50 51 52 54 55 57 58 59 61 63 63 63 63 63 65 66 67 68 69 70 71 71 72 73 74 75 75 75 75 75 74 74 72 70 68
34 37 39 42 44 47 49 51 52 54 57 58 60 61 63 65 67 67 66 66 64 63 63 65 67 69 70 71 72 73 75 76 76 77 77 77 78 77 77 76 75 73 70
38 40 42 45 47 50 53 54 56 59 61 62 64 66 68 68 68 67 67 65 64 63 62 64 66 69 71 71 72 74 75 76 77 77 78 78 78 78 77 76 76 74 72
42 44 46 49 52 54 57 58 61 63 65 67 68 69 68 67 66 65 65 65 65 63 61 63 65 68 70 71 73 74 75 76 76 76 76 75 73 72 71 71 70 70 70
46 48 50 53 56 59 61 62 64 66 68 68 68 68 66 64 63 63 63 63 64 64 61 63 66 70 72 73 74 75 74 72 71 69 66 64 62 60 59 59 59 61 63
50 52 55 57 60 62 64 65 66 67 67 67 65 64 62 61 61 61 62 63 64 65 65 65 67 70 72 72 71 68 65 61 58 55 53 51 49 48 47 46 47 48 51
53 55 57 59 62 63 65 65 65 65 64 63 61 60 60 60 61 62 63 64 65 66 67 66 65 65 64 61 57 54 50 47 44 41 39 38 38 38 39 39 39 40 42
55 57 59 60 62 63 63 63 63 62 60 60 59 59 59 60 61 62 63 64 65 65 65 63 58 54 50 46 43 40 38 36 33 31 30 31 32 33 34 35 35 36 36
56 58 59 60 61 61 61 61 60 59 59 59 58 59 59 60 61 62 62 63 62 59 56 50 44 39 36 34 32 30 28 27 26 25 25 26 27 28 29 30 31 32 33
57 58 58 59 59 59 58 58 57 57 58 57 58 59 60 60 60 60 59 57 53 48 42 36 32 30 29 27 25 24 22 23 24 23 22 23 23 23 24 25 26 27 28
55 55 55 56 56 56 56 55 56 57 57 57 57 58 58 57 56 54 51 47 42 36 30 26 24 24 23 22 21 21 20 21 22 22 21 21 21 20 21 21 22 23 24
53 53 53 53 53 53 54 55 55 55 55 55 54 54 53 51 48 43 39 35 31 26 22 20 20 19 19 19 20 20 21 21 21 21 20 20 20 19 18 18 18 18 19
49 50 50 50 51 52 52 52 52 53 53 52 50 48 45 41 37 32 27 25 22 20 19 18 18 18 19 20 21 21 21 21 21 21 20 19 19 18 17 16 15 15 16
47 48 49 49 50 50 50 49 49 49 47 45 43 40 36 31 26 21 19 17 16 16 16 17 18 19 21 22 22 22 21 20 19 19 19 18 17 17 16 15 14 13 12
46 47 47 47 47 47 47 46 43 41 39 37 35 32 27 21 16 14 13 12 13 14 15 17 20 21 22 22 21 20 18 17 16 16 16 15 13 12 12 12 12 11 11

GEFSMA_500_meanwind_036.txt.gz
Wind_Speed
17 17 17 17 17 17 17 17 16 15 15 15 16 16 17 18 20 21 22 23 24 26 27 28 29 30 31 32 33 34 35 36 37 37 37 38 38 38 38 37 37 37 37
21 22 22 21 21 21 21 21 20 20 20 20 20 20 21 22 22 24 25 26 27 28 29 30 32 33 35 36 37 38 38 39 40 40 41 41 41 41 41 42 42 42 42
26 26 26 26 26 26 25 25 24 24 24 24 24 24 25 24 24 25 26 28 29 30 32 33 34 36 37 39 40 41 42 42 43 43 44 44 45 45 45 44 44 45 45
31 32 32 31 31 31 30 30 29 29 28 28 27 27 27 27 26 26 28 30 31 33 34 35 37 38 39 41 42 43 44 45 46 46 47 48 48 49 49 49 48 48 48
36 36 36 37 37 36 36 35 34 33 32 31 30 29 29 29 28 28 30 32 33 35 37 37 39 40 42 43 45 46 47 48 49 50 51 52 52 53 53 53 53 52 52
39 39 38 38 39 39 39 38 36 35 34 33 32 32 31 30 29 31 32 34 35 37 39 40 42 43 44 46 47 49 50 52 53 54 55 56 56 57 57 57 57 56 55
36 36 36 37 38 39 38 38 38 37 35 33 32 32 31 31 31 33 34 36 37 39 41 43 45 46 48 49 51 53 54 56 57 58 59 60 60 61 61 61 60 60 59
33 34 34 33 34 35 36 36 35 34 33 32 31 31 32 32 32 35 37 39 41 43 45 47 49 51 52 54 56 58 60 61 62 63 64 64 65 65 65 65 64 63 63
32 31 31 30 29 31 33 32 32 32 31 30 31 32 35 37 39 39 41 44 46 48 51 52 54 56 58 60 62 63 63 65 66 67 68 68 69 69 68 68 67 66 66
32 30 28 27 25 27 28 29 29 29 30 32 33 36 38 41 44 46 46 48 51 54 56 58 60 62 64 65 66 66 66 66 68 69 70 70 70 71 71 71 71 70 69
32 29 28 27 26 27 27 28 30 32 34 35 37 40 42 45 47 49 53 56 58 59 61 62 64 66 67 67 68 68 67 68 69 70 71 71 71 71 72 72 72 72 71
34 32 30 29 29 29 31 33 35 37 38 40 42 45 47 49 51 54 57 59 61 63 64 65 66 67 68 69 70 69 69 69 70 71 71 71 71 72 72 72 72 72 72
34 33 32 32 33 34 35 37 38 40 43 45 47 49 51 54 56 59 61 62 63 64 65 67 67 67 68 69 69 69 68 68 68 69 69 70 70 70 71 71 71 71 71
36 35 35 35 36 38 39 41 43 45 48 50 51 53 56 57 59 61 63 64 64 64 65 65 66 67 67 68 69 68 68 68 68 68 69 69 70 70 71 71 71 71 71
39 39 39 40 41 42 44 46 48 50 51 53 55 57 59 60 61 62 63 64 64 63 62 64 65 66 66 68 68 68 68 68 67 67 66 67 67 67 67 67 67 67 67
43 44 44 45 46 46 48 49 51 53 54 56 58 59 60 61 62 62 62 62 62 62 61 63 64 65 66 67 68 68 66 65 63 61 60 58 57 56 56 56 57 57 58
47 47 48 48 48 49 50 52 53 54 56 57 58 59 60 60 61 61 61 61 62 62 62 62 64 65 65 65 64 62 60 57 54 51 49 48 47 45 45 45 46 48 49
50 49 49 50 50 51 52 53 54 55 57 57 58 58 58 59 58 59 59 60 61 62 62 62 62 61 60 58 54 51 48 45 42 40 39 39 38 38 37 37 38 39 40
51 50 50 51 51 52 53 54 55 56 56 56 56 56 56 56 57 57 58 59 60 61 60 59 56 53 50 47 43 40 38 36 34 34 32 32 32 32 32 32 32 32 32
52 52 52 52 52 53 53 54 54 54 55 55 54 54 54 54 55 57 57 58 58 57 54 51 46 42 40 38 35 33 32 31 31 30 29 28 28 29 29 29 29 29 29
54 53 53 53 53 53 53 53 53 53 53 53 52 52 53 54 55 55 55 54 53 49 44 40 36 34 33 31 31 30 30 29 30 29 28 27 27 27 27 28 28 27 27
53 53 53 53 53 53 52 52 52 52 51 51 51 52 52 52 52 52 50 48 44 39 34 31 30 29 29 29 29 29 30 29 29 28 28 27 27 26 26 25 25 25 25
52 52 52 52 52 52 52 51 51 50 50 49 49 50 50 49 48 45 42 39 34 30 27 26 26 27 27 27 28 28 28 28 27 26 25 25 26 25 24 23 23 22 22
51 51 51 51 51 50 50 50 49 48 48 48 47 46 44 42 39 36 33 29 27 25 25 25 26 26 27 27 26 26 24 23 22 21 21 21 22 22 22 21 21 21 21
49 49 49 49 49 48 48 47 47 47 45 44 42 40 37 33 30 26 23 22 21 22 23 24 25 25 25 24 23 22 20 19 19 19 19 19 18 18 17 17 17 17 18
47 47 47 47 47 46 45 45 44 42 40 38 36 33 28 24 21 18 17 17 19 20 22 23 23 23 22 21 20 18 17 17 18 18 18 17 16 15 14 14 13 14 14

GEFSMA_500_meanwind_042.txt.gz
Wind_Speed
20 21 22 24 25 25 25 24 23 23 23 24 24 24 24 25 25 23 22 22 23 24 24 24 24 25 25 26 27 28 29 30 31 32 32 33 34 34 35 35 36 36 36
25 26 27 28 29 29 28 27 26 26 27 28 28 28 28 29 28 28 26 26 26 26 26 27 27 27 28 29 30 31 32 33 33 34 36 37 37 38 39 39 40 40 40
28 28 30 29 30 30 31 31 31 29 30 31 32 32 32 32 31 31 31 30 28 28 29 29 30 30 31 32 33 34 35 36 37 38 39 40 41 42 42 43 43 43 43
31 30 30 29 30 31 31 32 33 32 33 34 34 34 35 34 34 34 34 34 33 31 31 32 33 34 34 34 35 36 38 39 40 41 43 44 45 45 46 46 46 47 47
31 30 31 31 32 32 32 31 31 32 33 34 34 34 35 36 36 36 36 37 36 35 35 34 35 36 37 37 38 39 40 42 43 45 46 48 49 50 51 51 51 52 52
32 32 32 32 32 31 31 30 29 31 33 34 35 36 36 37 37 38 38 38 38 38 39 38 38 38 38 40 41 43 44 46 47 49 51 52 54 55 56 57 57 57 57
34 33 32 32 31 31 31 30 28 29 31 32 34 34 34 35 37 37 37 38 37 37 37 38 39 40 40 42 44 47 49 50 52 54 56 58 59 60 62 62 63 64 64
35 34 33 32 31 30 31 30 29 29 29 29 30 31 31 33 34 34 36 37 37 38 38 40 41 44 46 48 49 51 53 56 58 60 62 63 65 66 67 68 69 70 70
37 35 34 33 32 31 30 30 30 30 29 28 29 29 30 31 32 34 34 35 37 39 42 45 47 50 52 54 56 58 59 61 63 65 67 69 70 71 72 72 73 74 74
37 37 36 34 33 31 31 31 31 31 31 31 31 31 32 34 35 35 37 40 42 44 46 49 52 55 57 59 61 63 65 66 68 70 71 72 73 74 75 75 75 76 75
39 38 37 36 35 34 33 33 33 33 34 35 35 35 36 38 40 42 44 45 48 51 53 55 57 59 61 64 66 67 69 70 71 73 74 74 75 75 75 75 75 75 75
40 40 38 38 37 37 36 36 36 36 37 38 39 40 41 43 45 47 49 50 53 56 59 61 63 65 66 68 69 70 70 72 73 74 74 74 74 75 75 75 75 75 74
41 41 40 39 40 40 39 39 39 39 40 42 43 44 45 48 50 52 53 55 58 60 62 64 67 69 70 71 71 72 72 73 73 73 74 74 74 74 74 75 74 73 72
42 42 42 42 42 41 41 42 42 43 43 44 46 47 49 51 54 56 58 60 61 63 65 67 69 70 71 72 72 72 73 73 73 73 73 72 72 72 72 72 72 71 70
44 44 45 45 45 45 45 45 45 45 46 47 49 50 52 55 57 59 61 63 64 65 65 67 68 69 70 71 71 71 71 71 71 71 70 70 69 67 66 65 64 64 64
47 47 48 49 49 48 49 48 48 48 49 50 52 53 55 57 59 61 63 64 65 65 65 65 67 68 68 68 69 69 69 68 66 65 64 63 60 58 57 56 55 55 56
51 51 52 53 52 52 52 52 52 51 52 53 54 56 57 58 59 61 62 63 64 64 64 64 65 66 66 67 67 66 64 61 59 57 54 51 50 49 49 48 47 47 46
53 54 55 55 55 55 55 54 54 54 55 55 56 56 57 57 58 59 60 61 62 62 62 61 62 63 62 61 60 59 56 54 50 47 45 44 43 43 42 41 41 40 40
55 56 56 57 57 56 56 56 56 56 56 56 56 56 56 57 57 58 58 58 59 59 59 59 58 57 56 55 53 50 47 45 43 42 41 40 40 39 39 39 38 38 37
56 57 57 57 57 57 57 57 57 57 56 56 55 55 55 55 55 55 55 55 55 55 55 54 53 51 49 47 45 42 40 40 39 40 40 39 38 37 37 37 36 36 34
56 57 57 57 57 57 57 58 57 56 56 55 55 54 54 53 52 52 52 52 52 51 50 48 46 42 40 39 39 38 38 37 36 36 35 35 35 34 34 34 33 33 32
55 55 55 55 56 56 56 56 56 55 55 54 53 52 51 50 49 48 48 48 47 46 44 40 36 35 34 35 35 35 34 33 32 32 31 30 30 29 30 29 29 29 30
53 54 54 54 54 55 55 55 55 54 53 51 50 48 47 46 45 44 43 42 41 39 34 31 30 31 32 33 33 32 31 30 30 29 27 26 27 27 27 27 26 26 27
52 52 52 52 52 53 53 52 51 50 48 47 45 44 42 41 39 38 37 36 34 30 28 27 29 30 31 31 30 29 28 27 26 26 25 24 24 25 25 25 25 24 23
50 50 50 50 49 49 49 48 46 45 43 42 40 38 36 35 34 32 30 28 25 24 25 26 28 28 28 28 27 26 26 25 24 25 25 25 24 24 24 23 22 21 20
47 47 47 47 46 45 44 43 42 40 39 37 35 32 30 28 27 25 22 20 19 20 22 24 25 26 26 26 25 25 24 24 24 24 25 25 24 23 22 22 21 19 17

GEFSMA_500_meanwind_048.txt.gz
Wind_Speed
8 8 9 10 12 14 15 15 15 17 18 18 19 20 20 20 21 21 22 24 25 26 27 27 27 27 27 27 27 27 28 29 30 30 30 31 31 32 32 32 33 33 33
8 9 10 11 13 14 14 15 16 17 18 19 20 20 21 22 23 24 25 26 27 29 29 29 29 29 30 30 30 30 31 32 33 33 34 34 35 35 35 36 36 36 36
10 11 11 11 13 13 14 15 16 17 18 19 20 20 21 21 23 25 27 27 28 30 30 31 32 33 34 34 34 35 35 36 37 37 38 38 38 39 39 39 39 39 39
12 13 13 14 15 15 15 15 16 17 18 18 19 19 20 21 23 24 26 28 29 31 32 34 35 36 37 38 38 38 39 40 40 41 42 42 42 43 43 43 44 44 44
17 16 15 16 17 17 17 18 18 17 18 19 19 20 21 22 23 25 26 28 29 31 33 35 36 38 39 40 41 42 42 43 44 45 46 46 47 47 48 49 49 49 49
21 20 19 20 20 20 21 21 21 20 20 20 21 21 22 23 24 26 28 30 31 31 32 33 34 37 39 41 42 43 44 46 47 48 49 51 51 52 53 54 55 55 55
25 24 24 23 24 23 23 23 23 23 22 23 23 24 25 25 26 27 29 30 32 33 33 34 35 37 39 41 43 45 45 47 49 51 52 54 56 57 58 59 60 61 62
29 29 28 27 27 26 26 26 26 26 26 26 26 27 27 28 29 29 30 31 33 34 36 36 37 39 41 42 44 46 49 51 52 54 56 58 60 62 63 65 66 67 68
32 32 32 32 30 29 29 29 29 30 29 29 29 30 31 32 33 33 34 35 36 37 38 40 42 44 45 46 47 50 52 54 56 59 61 63 65 67 69 71 72 73 74
35 35 35 35 33 32 31 31 31 32 32 32 33 34 35 35 36 37 39 40 41 42 43 45 47 49 50 52 53 55 58 60 62 64 67 69 71 73 74 75 76 77 77
37 37 37 37 36 35 34 33 33 34 35 36 37 38 39 40 41 42 44 45 46 47 49 50 52 54 55 58 60 62 64 66 68 70 72 74 75 76 76 77 78 78 78
39 39 39 39 38 37 36 36 37 38 38 39 41 42 43 45 46 47 48 49 50 52 54 55 57 59 60 62 65 67 69 71 72 74 75 76 76 76 76 77 77 77 77
40 40 41 40 39 38 39 39 40 41 42 44 45 46 48 49 50 51 52 52 54 55 57 60 62 63 65 67 69 70 72 73 74 74 75 75 75 75 75 74 74 74 74
40 41 41 41 40 40 41 42 44 45 46 48 49 50 51 52 53 54 55 55 56 58 60 62 65 66 68 69 70 71 72 73 74 74 74 74 73 72 72 71 71 70 70
43 43 43 43 43 44 45 46 48 50 51 52 53 54 55 55 56 57 58 58 59 60 61 64 66 68 68 69 69 70 71 71 71 71 71 70 70 70 69 69 68 67 66
46 46 47 48 47 49 51 52 53 54 54 55 56 56 57 58 59 59 60 60 61 62 63 64 66 66 66 67 67 68 68 68 67 67 66 66 66 66 65 63 62 61 60
49 50 51 53 54 55 56 57 57 57 58 59 60 60 60 60 60 60 60 61 62 63 63 63 64 64 64 64 64 64 64 63 62 62 62 61 60 59 58 57 55 54 53
54 56 57 58 59 59 60 60 61 61 61 62 62 61 61 61 60 61 61 62 62 63 62 61 61 61 62 62 61 60 60 59 58 57 56 54 52 50 49 48 47 46 46
59 60 61 62 62 62 63 63 63 63 62 62 62 61 61 60 61 61 61 61 61 60 60 58 58 58 58 57 56 55 55 53 51 49 47 46 45 45 45 44 43 42 42
61 62 63 62 63 64 63 62 61 61 60 59 59 59 59 59 59 60 59 59 58 58 56 55 54 53 52 52 51 48 45 44 43 43 42 41 41 41 41 40 39 39 39
59 58 58 57 57 58 58 58 58 58 58 57 58 58 58 58 58 58 57 56 54 53 52 50 49 47 47 46 43 40 38 37 38 38 37 38 38 37 37 36 34 35 35
53 53 53 53 54 54 55 55 55 55 55 56 56 56 57 57 56 54 52 51 49 48 46 44 42 41 39 36 34 34 34 33 32 33 34 34 34 34 33 33 32 32 32
49 50 50 51 52 52 52 53 53 54 54 54 54 53 52 51 49 48 46 45 44 41 39 37 35 32 30 29 29 30 30 31 31 30 30 31 32 32 31 30 30 30 30
47 48 49 50 50 51 52 51 51 51 50 49 48 47 46 44 43 41 40 38 37 35 33 30 27 25 24 25 26 26 26 27 28 29 28 28 29 29 29 28 27 26 26
46 46 47 47 47 47 47 47 46 45 45 44 43 41 40 38 36 34 32 30 29 27 25 23 21 20 20 21 22 23 24 25 26 27 27 27 26 26 26 26 24 22 21
43 43 43 43 43 42 42 42 41 40 39 38 36 33 32 30 28 26 24 22 21 20 18 17 17 17 18 20 21 22 23 23 24 24 24 24 24 23 22 23 22 20 18

GEFSMA_500_meanwind_054.txt.gz
Wind_Speed
8 8 9 10 10 10 11 11 11 12 13 13 13 13 13 13 14 16 18 19 20 21 22 23 24 25 26 27 28 29 29 30 30 31 30 30 31 31 31 31 31 31 31
10 10 11 11 12 11 12 12 13 13 14 15 15 15 15 14 15 16 18 20 21 22 23 25 26 27 28 29 30 30 31 32 33 34 34 34 35 35 35 35 35 35 34
13 13 13 13 14 14 13 14 14 15 16 17 17 17 17 15 15 16 18 19 21 22 23 25 27 28 29 30 31 32 33 34 35 37 37 38 38 38 39 38 38 39 39
16 17 17 16 17 17 17 16 17 17 18 19 20 20 19 18 19 19 20 21 21 23 24 25 27 28 30 31 32 34 35 36 37 38 39 40 41 42 42 42 42 42 43
20 21 21 20 20 21 20 20 20 20 20 22 22 22 22 22 23 23 23 23 24 25 26 27 28 29 31 32 33 34 36 37 38 39 40 41 42 44 44 45 46 46 47
24 25 25 25 25 25 25 24 24 24 23 24 25 25 26 26 26 27 27 27 27 28 29 30 31 32 33 34 35 37 38 39 40 41 43 44 45 46 47 49 50 50 51
26 27 28 27 27 26 27 28 28 27 27 27 28 28 28 29 30 31 31 32 32 33 34 34 35 36 37 38 39 40 42 43 43 44 46 47 48 49 51 53 54 55 55
30 30 30 30 30 29 28 29 30 30 30 30 30 31 31 32 33 34 35 36 37 38 39 39 40 41 42 43 45 46 47 48 49 50 50 51 52 53 54 56 57 58 60
32 32 33 32 31 30 30 31 31 31 32 32 33 33 34 35 36 37 38 39 41 42 43 44 45 46 48 49 50 51 52 53 54 55 56 57 58 59 60 61 62 63 64
32 31 32 32 32 33 33 34 34 35 35 36 36 35 36 37 39 40 41 42 44 45 47 48 50 51 52 53 54 55 56 58 58 59 61 62 64 65 66 67 68 69 69
31 32 33 33 34 34 35 35 36 36 37 37 37 38 39 41 41 43 44 45 46 48 49 51 53 54 55 56 57 58 60 61 63 64 65 66 68 69 70 71 72 72 72
34 34 35 35 37 37 37 37 38 38 39 39 40 41 42 43 43 45 47 48 50 52 53 55 56 57 58 59 61 62 63 64 66 67 68 69 70 71 72 72 73 73 73
37 37 38 38 39 39 39 40 40 41 41 42 42 44 44 45 47 49 50 52 54 55 57 58 59 60 61 62 63 64 65 66 67 68 69 70 70 71 72 72 73 73 73
40 40 40 41 41 41 42 42 43 43 44 45 46 48 49 50 51 53 55 56 57 58 60 61 62 63 64 64 65 66 67 68 68 69 69 70 70 70 70 70 70 70 70
42 42 42 43 44 44 45 45 47 48 49 50 51 52 53 55 57 58 59 60 61 62 63 64 65 65 65 66 66 66 67 67 68 68 68 67 67 66 66 66 66 66 66
44 44 46 46 46 47 48 50 51 52 53 54 56 57 58 60 61 62 63 63 64 64 64 64 65 65 65 65 65 65 66 66 65 65 64 63 63 62 62 62 61 61 60
47 47 48 49 50 52 53 53 55 56 57 58 60 60 61 62 63 63 64 65 65 64 64 64 65 64 64 64 64 64 63 62 61 60 59 58 58 57 56 55 55 54 54
50 50 51 52 53 55 55 57 58 59 60 61 62 62 63 64 64 64 64 65 64 63 62 62 62 62 62 62 62 61 59 57 56 54 53 52 52 50 49 49 49 48 48
50 52 53 54 55 56 58 59 60 60 61 61 62 62 63 63 63 63 63 62 61 60 60 59 58 59 59 58 57 55 53 51 50 48 47 46 45 45 44 43 43 43 44
50 50 52 53 54 56 57 58 59 59 60 60 60 61 61 61 61 61 60 59 58 57 56 56 55 54 53 52 50 47 45 44 44 42 41 40 39 39 39 40 40 40 41
48 50 52 53 54 55 55 56 57 57 58 58 59 59 59 59 58 56 56 55 54 53 52 51 49 48 47 44 42 40 38 37 37 36 36 36 36 36 37 37 38 38 38
48 50 51 52 53 54 55 56 57 57 57 57 57 56 55 54 53 52 51 50 50 48 46 44 42 40 37 36 34 34 32 30 30 30 31 34 35 35 35 35 35 35 36
47 48 49 50 51 52 54 55 55 55 54 53 52 50 49 48 46 45 44 42 40 37 36 34 32 30 30 30 28 27 27 27 27 26 28 30 32 33 34 34 33 33 33
45 46 47 48 50 50 51 51 51 50 48 46 44 43 41 39 37 36 34 32 31 29 28 26 25 25 24 23 22 21 22 23 25 26 26 28 30 32 34 34 33 32 32
43 44 45 46 47 48 49 48 46 43 41 38 37 36 33 30 28 26 25 24 23 22 20 20 19 18 18 17 17 18 19 21 23 26 27 28 29 31 33 34 32 31 30
40 42 43 44 45 45 43 41 39 36 33 31 29 26 23 21 19 18 18 17 17 16 15 14 14 13 13 14 15 17 19 21 22 24 26 28 29 30 29 30 30 29 29

GEFSMA_500_meanwind_060.txt.gz
Wind_Speed
12 13 13 13 13 14 14 14 14 14 14 14 14 14 15 15 15 16 16 15 15 15 16 16 17 17 18 19 20 21 22 23 24 25 26 27 27 28 28 29 30 30 30
15 15 16 16 16 16 16 17 17 17 17 16 16 16 16 17 17 17 17 17 18 18 18 18 18 19 19 20 21 22 23 25 26 26 27 28 29 29 30 31 32 32 33
18 19 19 20 20 20 20 20 20 20 20 21 20 20 19 19 19 19 20 20 20 20 21 21 21 21 22 22 23 23 24 25 26 27 28 29 30 30 31 32 33 34 35
21 23 24 24 25 24 23 23 24 24 24 24 24 24 23 22 23 23 23 23 23 24 23 24 25 25 26 26 26 27 27 28 29 30 31 31 32 32 33 34 35 35 36
25 26 28 29 28 28 27 27 27 27 26 26 26 26 26 26 26 26 26 27 27 27 27 27 29 29 30 30 31 31 32 33 33 33 34 35 35 35 36 37 37 38 39
29 30 31 31 30 30 30 30 29 28 29 29 29 29 29 30 30 30 29 30 30 31 31 32 33 33 33 34 35 35 37 37 37 38 38 39 39 40 41 41 42 43 44
32 33 34 34 33 33 32 31 31 31 31 31 30 30 30 31 31 31 32 33 34 35 35 36 37 37 38 39 39 40 41 42 43 43 43 44 45 46 46 47 47 48 48
35 37 37 37 36 35 35 33 32 30 30 29 30 31 31 32 33 34 35 36 37 38 39 39 40 41 42 43 44 45 46 46 47 48 48 49 50 50 51 51 51 52 53
37 38 38 37 34 33 32 33 32 31 31 30 30 31 32 34 36 36 36 37 39 40 41 42 43 44 46 48 49 49 49 50 51 52 53 54 54 54 55 56 56 57 57
39 37 36 34 32 30 29 29 28 30 30 30 31 33 35 36 38 38 39 40 40 41 43 45 47 48 49 51 52 52 52 54 55 56 57 58 58 59 59 60 61 61 62
40 37 35 34 32 31 30 30 30 30 32 33 34 35 37 38 39 41 42 43 44 45 46 48 50 51 53 54 55 55 57 58 59 60 61 62 62 62 63 63 64 65 65
40 37 36 36 34 34 33 33 34 34 35 36 37 37 38 41 43 44 46 46 48 49 50 52 54 55 57 58 59 60 61 62 62 63 64 64 65 65 66 66 67 68 67
40 40 39 37 37 37 37 37 37 37 38 38 39 41 42 44 45 47 48 50 51 53 55 56 58 59 61 62 63 63 64 64 65 66 67 67 67 68 68 68 68 68 68
43 42 41 41 39 39 40 41 41 41 42 42 43 45 46 48 49 50 51 53 55 57 59 61 62 64 65 66 66 66 67 67 68 68 69 69 69 69 68 68 68 68 68
45 45 44 44 43 42 43 43 43 44 45 46 47 48 50 51 52 54 55 57 59 61 63 64 65 67 67 68 68 68 69 69 68 68 68 68 68 67 67 67 67 66 65
46 46 45 45 45 45 45 46 48 48 49 50 50 51 53 54 56 57 59 60 61 63 64 65 65 66 67 68 69 69 69 68 67 67 66 66 65 65 65 64 61 60 60
47 46 46 46 47 48 48 48 48 49 51 51 52 53 55 56 58 60 61 62 62 63 63 65 65 66 67 67 66 64 63 63 63 62 61 61 60 59 59 56 55 54 54
47 47 47 48 48 49 49 49 50 51 52 52 54 56 57 58 59 60 61 61 61 62 62 62 63 63 62 62 60 58 57 57 57 55 54 54 53 52 51 50 50 49 49
47 46 46 46 47 48 49 50 51 52 52 54 55 56 57 57 58 58 59 59 59 58 57 57 57 56 55 55 54 53 53 51 51 50 48 47 46 45 45 45 44 44 44
45 45 46 47 48 49 50 51 51 51 53 54 54 55 56 56 56 55 55 54 53 53 51 50 50 48 48 47 47 46 45 44 43 41 41 40 39 39 38 38 38 39 40
44 45 46 48 48 48 49 50 51 51 52 52 52 53 53 52 51 50 48 47 46 45 44 43 43 42 41 40 39 38 37 36 35 35 35 35 34 34 34 34 34 35 37
44 45 45 46 46 47 47 48 49 50 50 50 50 49 49 48 46 44 42 41 39 38 37 36 35 34 33 32 31 31 30 30 30 30 31 31 30 30 31 32 32 33 34
41 42 43 44 44 45 46 47 47 47 47 47 46 45 44 43 41 39 37 35 32 31 29 28 28 27 26 26 26 26 26 26 26 26 26 26 27 28 29 30 30 31 32
39 40 41 42 42 43 43 44 44 44 43 43 41 40 38 36 33 31 29 26 24 23 23 22 22 22 22 22 22 23 23 23 23 23 23 24 25 27 28 29 29 29 30
36 37 38 39 40 40 41 41 40 39 38 36 33 30 27 25 23 21 19 18 18 18 18 18 18 18 19 19 19 20 20 20 20 21 22 23 25 26 27 28 29 29 29
34 35 35 36 36 36 35 35 33 31 29 25 22 19 17 16 15 14 14 14 14 14 14 14 15 15 15 16 16 17 17 18 19 20 22 23 24 24 25 26 26 27 28